Regional Weather Roundup
Issued by NWS

Home | Current Version | Previous Version | Graphics & Text | Print | Product List | Glossary On
Versions: 1 2 3 4 5 6 7 8 9 10 11 12 13 14 15 16 17 18 19 20 21 22 23 24 25 26 27 28 29 30 31 32 33 34 35 36 37 38 39 40 41 42 43 44 45 46 47 48 49 50
000
ASUS43 KMKX 220221
RWRWI

WISCONSIN REGIONAL WEATHER ROUNDUP
NATIONAL WEATHER SERVICE MILWAUKEE/SULLIVAN WI
900 PM CDT SAT OCT 21 2017

NOTE: "FAIR" INDICATES FEW OR NO CLOUDS BELOW 12,000 FEET WITH NO
SIGNIFICANT WEATHER AND/OR OBSTRUCTIONS TO VISIBILITY.

WIZ001-002-006>008-014>016-023>028-220300-
NORTHWEST WISCONSIN

CITY           SKY/WX    TMP DP  RH WIND       PRES   REMARKS
SUPERIOR ARPT  CLOUDY    64  61  90 S10       29.66S
ASHLAND        MOCLDY    68  58  70 S13G20    29.71S
HAYWARD        RAIN      64  59  83 S10       29.73S
SIREN          CLOUDY    65  59  81 S9        29.69F
CUMBERLAND     LGT RAIN  63  59  88 S12       29.73R
RICE LAKE      LGT RAIN  65  59  81 SE9       29.74F
CHETEK         RAIN      65  60  84 S9G18     29.73F
LADYSMITH      CLOUDY    66  58  73 S9        29.78S
EAU CLAIRE     CLOUDY    68  58  70 S9        29.74F
MENOMONIE      CLOUDY    69  59  71 S12G18    29.73F
NEW RICHMOND   CLOUDY    65  57  75 W20G25    29.71S
OSCEOLA        CLOUDY    57  51  82 W15       29.76R
$$

WIZ003>005-009-010-017-018-220300-
NORTH CENTRAL WISCONSIN

CITY           SKY/WX    TMP DP  RH WIND       PRES   REMARKS
MANITOWISH WTR CLOUDY    65  58  79 S9        29.80F
ARBOR VITAE    FAIR      67  58  72 S14G20    29.80F
WOODRUFF       FAIR      67  58  72 S14G20    29.80F
RHINELANDER    MOCLDY    67  58  72 S8        29.84F
EAGLE RIVER    NOT AVBL
LAND O LAKES   CLOUDY    65  55  69 S8        29.85F
PHILLIPS       CLOUDY    66  58  77 S12       29.78F
TOMAHAWK       FAIR      64  56  76 SE3       29.82F
MEDFORD        FAIR      64  57  77 SE8       29.81S
MERRILL        MOCLDY    68  58  70 S12       29.83F
$$

WIZ029-030-035-036-043>047-220300-
CENTRAL WISCONSIN

CITY           SKY/WX    TMP DP  RH WIND       PRES   REMARKS
WAUSAU         CLOUDY    69  57  65 S14       29.82F
MOSINEE        PTCLDY    66  57  72 S13       29.85F
MARSHFIELD     FAIR      67  56  67 SE9       29.81F
STEVENS POINT  FAIR      66  55  68 S9        29.85F
WAUPACA        FAIR      69  56  63 SE9       29.88F
WAUTOMA        MOCLDY   N/A N/A N/A SE14      29.87F
WISC RAPIDS    FAIR      69  57  65 S9        29.84F
CAMP DOUGLAS   FAIR      69  58  68 SE8       29.80F
$$

WIZ011>013-019>022-031-037>040-048>050-220300-
NORTHEAST WISCONSIN

CITY           SKY/WX    TMP DP  RH WIND       PRES   REMARKS
ANTIGO         CLOUDY    66  56  71 S16G22    29.87F
SHAWANO        CLOUDY    66  56  70 SE6       29.89S
OCONTO         FAIR      62  56  80 S9        29.90F
STURGEON BAY   MOCLDY    63  56  78 S22G29    29.93F
GREEN BAY      FAIR      65  57  75 S10       29.91F
MANITOWOC      MOCLDY    62  56  80 S20G29    29.96F
APPLETON       NOT AVBL
CLINTONVILLE   NOT AVBL
OSHKOSH        FAIR      66  57  72 S10       29.90F
$$

WIZ032>034-041-042-053>061-220300-
SOUTHWEST WISCONSIN

CITY           SKY/WX    TMP DP  RH WIND       PRES   REMARKS
LA CROSSE      MOCLDY    73  61  65 S14       29.75F
SPARTA         FAIR      71  60  67 S12G17    29.79F
VIROQUA        CLOUDY    69  61  77 SE12G20   29.81F
BOSCOBEL       FAIR      74  59  59 VRB7      29.81F
PRAIRIE DU CHI CLOUDY    73  58  59 SE10G18   29.80R
PLATTEVILLE    FAIR      70  61  74 S20G26    29.86F
$$

WIZ056-057-062-063-064-067-068-220300-
SOUTH CENTRAL WISCONSIN

CITY           SKY/WX    TMP DP  RH WIND       PRES   REMARKS
REEDSBURG      FAIR      71  59  66 S10G21    29.84F
BARABOO/DELLS  FAIR      69  57  63 S16G23    29.86F
LONE ROCK      FAIR      72  61  68 SE16      29.84F
MINERAL POINT  FAIR      70  61  73 S13       29.87F
MADISON        MOCLDY    71  59  65 S16       29.89F
MIDDLETON      FAIR      72  59  63 S14G21    29.89S
WATERTOWN      CLOUDY    69  60  72 S13       29.92F
MONROE         FAIR      70  57  64 S15G23    29.91S
JANESVILLE     CLOUDY    72  57  60 S12G18    29.93F
$$

WIZ051-052-058>065-066-070>072-220300-
SOUTHEAST WISCONSIN

CITY           SKY/WX    TMP DP  RH WIND       PRES   REMARKS
MILWAUKEE      FAIR      67  58  72 S10       29.97F
WAUKESHA       NOT AVBL
MILWAUKEE/TIMM CLEAR     66  54  63 S9        29.97F
RACINE         FAIR      65  58  78 S12       29.99F
BURLINGTON     FAIR      68  59  73 S7        29.96F
KENOSHA        FAIR      70  57  63 S14       29.98F
FOND DU LAC    FAIR      68  55  63 S12       29.91F
SHEBOYGAN      CLOUDY    63  58  83 S12       29.96F
WEST BEND      MOCLDY    63  54  72 SE6       29.95S
JUNEAU         MOCLDY    69  58  68 S15       29.93F
$$

LSZ147-162-220300-
LAKE SUPERIOR

STATION/POSITION TIME  TEMP    WIND        PRES    WAVE
                       AIR SEA DIR/SP/G            HT/PER
                 (UTC) (F)     (DEG/KT/KT) (MB)    (FT/S)
W MID LAKE BUOY  0150   59 52              1006.2F   1/ 4
DEVILS ISLAND    0200   66     190/  8/ 11 1005.7R
SAXON HARBOR     0140   70     180/  7/ 15 1005.4F
$$

LMZ867-665-643>646-220300-
LAKE MICHIGAN

STATION/POSITION TIME  TEMP    WIND        PRES    WAVE
                       AIR SEA DIR/SP/G            HT/PER
                 (UTC) (F)     (DEG/KT/KT) (MB)    (FT/S)
S GREEN BAY BUOY 0200   64 58  170/ 19/ 23 1012.3
N MID LAKE BUOY  0150   62 58  190/ 10/ 12 1015.3R   7/ 6
NORTHPORT PIER   0040   61     160/  9/ 16 1013.9S
KEWAUNEE LAKESHO 0154   54     180/  9/ 11 1013.4F
SHEBOYGAN LAKESH 0200   57     180/ 17/ 18 1014.3F
PORT WASHINGTON  0130   57     190/  6/  9 1015.6F
ATWATER BUOY     0109   58 52  160/ 16/ 19 1014.6F
MILWAUKEE LAKESH 0200   58     150/ 12/ 14   N/A
S MID LAKE BUOY  0150   65 61  150/ 16/ 17 1016.5R   3/ 4
KENOSHA   LAKESH 0200   60     170/ 17/ 19 1014.9
$$

TC  - TEMPERATURE IN CELSIUS
VSB - VISIBILITY IN STATUTE MILES
WCI - WIND CHILL INDEX
HX  - HEAT INDEX




USA.gov is the U.S. government's official web portal to all federal, state and local government web resources and services.